Year,Month,Day,Hour,Minute,Value (Times are PST for temperature in C)
2016,04,25,06,53,7.10
2016,04,25,06,54,7.10
2016,04,25,06,55,7.10
2016,04,25,06,56,7.20
2016,04,25,06,57,7.20
2016,04,25,06,58,7.20
2016,04,25,06,59,7.20
2016,04,25,07,00,7.20
2016,04,25,07,01,7.30
2016,04,25,07,02,7.30
2016,04,25,07,03,7.30
2016,04,25,07,04,7.30
2016,04,25,07,05,7.30
2016,04,25,07,06,7.30
2016,04,25,07,07,7.30
2016,04,25,07,08,7.30
2016,04,25,07,09,7.30
2016,04,25,07,10,7.30
2016,04,25,07,11,7.40
2016,04,25,07,12,7.40
2016,04,25,07,13,7.40
2016,04,25,07,14,7.40
2016,04,25,07,15,7.50
2016,04,25,07,16,7.50
2016,04,25,07,17,7.60
2016,04,25,07,18,7.60
2016,04,25,07,19,7.60
2016,04,25,07,20,7.70
2016,04,25,07,21,7.70
2016,04,25,07,22,7.70
2016,04,25,07,23,7.80
2016,04,25,07,24,7.80
2016,04,25,07,25,7.80
2016,04,25,07,26,7.90
2016,04,25,07,27,7.90
2016,04,25,07,28,7.90
2016,04,25,07,29,7.90
2016,04,25,07,30,8.00
2016,04,25,07,31,8.10
2016,04,25,07,32,8.10
2016,04,25,07,33,8.10
2016,04,25,07,34,8.10
2016,04,25,07,35,8.20
2016,04,25,07,36,8.20
2016,04,25,07,37,8.20
2016,04,25,07,38,8.30
2016,04,25,07,39,8.30
2016,04,25,07,40,8.30
2016,04,25,07,41,8.40
2016,04,25,07,42,8.40
2016,04,25,07,43,8.40
2016,04,25,07,44,8.40
2016,04,25,07,45,8.40
2016,04,25,07,46,8.50
2016,04,25,07,47,8.50
2016,04,25,07,48,8.60
2016,04,25,07,49,8.70
2016,04,25,07,50,8.90
2016,04,25,07,51,9.00
2016,04,25,07,52,9.00
2016,04,25,07,53,9.10
2016,04,25,07,54,9.10
2016,04,25,07,55,9.20
2016,04,25,07,56,9.30
2016,04,25,07,57,9.30
2016,04,25,07,58,9.40
2016,04,25,07,59,9.50
2016,04,25,08,00,9.60
2016,04,25,08,01,9.70
2016,04,25,08,02,9.70
2016,04,25,08,03,9.80
2016,04,25,08,04,9.90
2016,04,25,08,05,10.00
2016,04,25,08,06,10.00
2016,04,25,08,07,10.10
2016,04,25,08,08,10.10
2016,04,25,08,09,10.20
2016,04,25,08,10,10.30
2016,04,25,08,11,10.30
2016,04,25,08,12,10.40
2016,04,25,08,13,10.50
2016,04,25,08,14,10.60
2016,04,25,08,15,10.60
2016,04,25,08,16,10.70
2016,04,25,08,17,10.70
2016,04,25,08,18,10.70
2016,04,25,08,19,10.70
2016,04,25,08,20,10.70
2016,04,25,08,21,10.70
2016,04,25,08,22,10.80
2016,04,25,08,23,10.80
2016,04,25,08,24,10.90
2016,04,25,08,25,11.00
2016,04,25,08,26,11.00
2016,04,25,08,27,10.90
2016,04,25,08,28,10.90
2016,04,25,08,29,10.90
2016,04,25,08,30,10.80
2016,04,25,08,31,10.80
2016,04,25,08,32,10.70
2016,04,25,08,33,10.70
2016,04,25,08,34,10.60
2016,04,25,08,35,10.60
2016,04,25,08,36,10.60
2016,04,25,08,37,10.60
2016,04,25,08,38,10.60
2016,04,25,08,39,10.60
2016,04,25,08,40,10.60
2016,04,25,08,41,10.60
2016,04,25,08,42,10.60
2016,04,25,08,43,10.70
2016,04,25,08,44,10.70
2016,04,25,08,45,10.80
2016,04,25,08,46,10.80
2016,04,25,08,47,10.90
2016,04,25,08,48,10.90
2016,04,25,08,49,11.00
2016,04,25,08,50,11.00
2016,04,25,08,51,11.00
2016,04,25,08,52,11.10
2016,04,25,08,53,11.10
2016,04,25,08,54,11.10
2016,04,25,08,55,11.10
2016,04,25,08,56,11.20
2016,04,25,08,57,11.20
2016,04,25,08,58,11.30
2016,04,25,08,59,11.30
2016,04,25,09,00,11.30
2016,04,25,09,01,11.20
2016,04,25,09,02,11.10
2016,04,25,09,03,11.10
2016,04,25,09,04,11.10
2016,04,25,09,05,11.00
2016,04,25,09,06,11.00
2016,04,25,09,07,10.90
2016,04,25,09,08,10.90
2016,04,25,09,09,10.90
2016,04,25,09,10,11.00
2016,04,25,09,11,11.00
2016,04,25,09,12,11.00
2016,04,25,09,13,11.00
2016,04,25,09,14,11.00
2016,04,25,09,15,11.00
2016,04,25,09,16,10.90
2016,04,25,09,17,10.80
2016,04,25,09,18,10.70
2016,04,25,09,19,10.60
2016,04,25,09,20,10.50
2016,04,25,09,21,10.40
2016,04,25,09,22,10.40
2016,04,25,09,23,10.30
2016,04,25,09,24,10.20
2016,04,25,09,25,10.20
2016,04,25,09,26,10.20
2016,04,25,09,27,10.10
2016,04,25,09,28,10.10
2016,04,25,09,29,10.10
2016,04,25,09,30,10.10
2016,04,25,09,31,10.10
2016,04,25,09,32,10.10
2016,04,25,09,33,10.10
2016,04,25,09,34,10.10
2016,04,25,09,35,10.10
2016,04,25,09,36,10.10
2016,04,25,09,37,10.10
2016,04,25,09,38,10.10
2016,04,25,09,39,10.10
2016,04,25,09,40,10.10
2016,04,25,09,41,10.20
2016,04,25,09,42,10.20
2016,04,25,09,43,10.20
2016,04,25,09,44,10.30
2016,04,25,09,45,10.30
2016,04,25,09,46,10.40
2016,04,25,09,47,10.40
2016,04,25,09,48,10.50
2016,04,25,09,49,10.60
2016,04,25,09,50,10.60
2016,04,25,09,51,10.70
2016,04,25,09,52,10.80
2016,04,25,09,53,10.90
2016,04,25,09,54,10.90
2016,04,25,09,55,10.90
2016,04,25,09,56,10.90
2016,04,25,09,57,10.90
2016,04,25,09,58,10.80
2016,04,25,09,59,10.80
2016,04,25,10,00,10.70
2016,04,25,10,01,10.60
2016,04,25,10,02,10.60
2016,04,25,10,03,10.60
2016,04,25,10,04,10.60
2016,04,25,10,05,10.60
2016,04,25,10,06,10.70
2016,04,25,10,07,10.60
2016,04,25,10,08,10.60
2016,04,25,10,09,10.60
2016,04,25,10,10,10.60
2016,04,25,10,11,10.60
2016,04,25,10,12,10.60
2016,04,25,10,13,10.50
2016,04,25,10,14,10.50
2016,04,25,10,15,10.40
2016,04,25,10,16,10.50
2016,04,25,10,17,10.50
2016,04,25,10,18,10.60
2016,04,25,10,19,10.60
2016,04,25,10,20,10.60
2016,04,25,10,21,10.70
2016,04,25,10,22,10.80
2016,04,25,10,23,10.90
2016,04,25,10,24,11.00
2016,04,25,10,25,10.90
2016,04,25,10,26,11.00
2016,04,25,10,27,11.00
2016,04,25,10,28,11.20
2016,04,25,10,29,11.30
2016,04,25,10,30,11.50
2016,04,25,10,31,11.70
2016,04,25,10,32,11.90
2016,04,25,10,33,11.90
2016,04,25,10,34,12.10
2016,04,25,10,35,12.20
2016,04,25,10,36,12.30
2016,04,25,10,37,12.40
2016,04,25,10,38,12.50
2016,04,25,10,39,12.50
2016,04,25,10,40,12.50
2016,04,25,10,41,12.40
2016,04,25,10,42,12.30
2016,04,25,10,43,12.20
2016,04,25,10,44,12.10
2016,04,25,10,45,12.10
2016,04,25,10,46,12.10
2016,04,25,10,47,12.10
2016,04,25,10,48,12.10
2016,04,25,10,49,12.10
2016,04,25,10,50,12.20
2016,04,25,10,51,12.20
2016,04,25,10,52,12.30
2016,04,25,10,53,12.30
2016,04,25,10,54,12.20
2016,04,25,10,55,12.20
2016,04,25,10,56,12.20
2016,04,25,10,57,12.20
2016,04,25,10,58,12.10
2016,04,25,10,59,11.90
2016,04,25,11,00,11.70
2016,04,25,11,01,11.70
2016,04,25,11,02,11.70
2016,04,25,11,03,11.70
2016,04,25,11,04,11.70
2016,04,25,11,05,11.80
2016,04,25,11,06,11.90
2016,04,25,11,07,11.90
2016,04,25,11,08,12.00
2016,04,25,11,09,12.00
2016,04,25,11,10,12.00
2016,04,25,11,11,12.10
2016,04,25,11,12,12.20
2016,04,25,11,13,12.30
2016,04,25,11,14,12.40
2016,04,25,11,15,12.40
2016,04,25,11,16,12.50
2016,04,25,11,17,12.60
2016,04,25,11,18,12.70
2016,04,25,11,19,12.60
2016,04,25,11,20,12.50
2016,04,25,11,21,12.30
2016,04,25,11,22,12.20
2016,04,25,11,23,12.20
2016,04,25,11,24,12.20
2016,04,25,11,25,12.30
2016,04,25,11,26,12.50
2016,04,25,11,27,12.50
2016,04,25,11,28,12.60
2016,04,25,11,29,12.70
2016,04,25,11,30,12.80
2016,04,25,11,31,12.80
2016,04,25,11,32,12.70
2016,04,25,11,33,12.70
2016,04,25,11,34,12.50
2016,04,25,11,35,12.50
2016,04,25,11,36,12.60
2016,04,25,11,37,12.60
2016,04,25,11,38,12.60
2016,04,25,11,39,12.70
2016,04,25,11,40,12.90
2016,04,25,11,41,13.00
2016,04,25,11,42,13.10
2016,04,25,11,43,13.10
2016,04,25,11,44,13.10
2016,04,25,11,45,13.20
2016,04,25,11,46,13.10
2016,04,25,11,47,13.20
2016,04,25,11,48,13.10
2016,04,25,11,49,12.90
2016,04,25,11,50,12.70
2016,04,25,11,51,12.70
2016,04,25,11,52,12.60
2016,04,25,11,53,12.60
2016,04,25,11,54,12.70
2016,04,25,11,55,12.70
2016,04,25,11,56,12.70
2016,04,25,11,57,12.70
2016,04,25,11,58,12.60
2016,04,25,11,59,12.60
2016,04,25,12,00,12.60
2016,04,25,12,01,12.60
2016,04,25,12,02,12.60
2016,04,25,12,03,12.50
2016,04,25,12,04,12.40
2016,04,25,12,05,12.40
2016,04,25,12,06,12.40
2016,04,25,12,07,12.40
2016,04,25,12,08,12.40
2016,04,25,12,09,12.50
2016,04,25,12,10,12.50
2016,04,25,12,11,12.60
2016,04,25,12,12,12.80
2016,04,25,12,13,12.90
2016,04,25,12,14,12.90
2016,04,25,12,15,12.90
2016,04,25,12,16,12.80
2016,04,25,12,17,12.90
2016,04,25,12,18,13.00
2016,04,25,12,19,13.00
2016,04,25,12,20,12.80
2016,04,25,12,21,12.80
2016,04,25,12,22,12.80
2016,04,25,12,23,12.80
2016,04,25,12,24,12.70
2016,04,25,12,25,12.70
2016,04,25,12,26,12.60
2016,04,25,12,27,12.50
2016,04,25,12,28,12.50
2016,04,25,12,29,12.50
2016,04,25,12,30,12.50
2016,04,25,12,31,12.60
2016,04,25,12,32,12.70
2016,04,25,12,33,12.70
2016,04,25,12,34,12.70
2016,04,25,12,35,12.80
2016,04,25,12,36,12.80
2016,04,25,12,37,12.80
2016,04,25,12,38,12.90
2016,04,25,12,39,12.90
2016,04,25,12,40,12.80
2016,04,25,12,41,12.60
2016,04,25,12,42,12.60
2016,04,25,12,43,12.60
2016,04,25,12,44,12.60
2016,04,25,12,45,12.70
2016,04,25,12,46,12.70
2016,04,25,12,47,12.70
2016,04,25,12,48,12.60
2016,04,25,12,49,12.60
2016,04,25,12,50,12.60
2016,04,25,12,51,12.50
2016,04,25,12,52,12.50
2016,04,25,12,53,12.40
2016,04,25,12,54,12.40
2016,04,25,12,55,12.30
2016,04,25,12,56,12.30
2016,04,25,12,57,12.30
2016,04,25,12,58,12.40
2016,04,25,12,59,12.40
2016,04,25,13,00,12.50
2016,04,25,13,01,12.60
2016,04,25,13,02,12.60
2016,04,25,13,03,12.70
2016,04,25,13,04,12.70
2016,04,25,13,05,12.80
2016,04,25,13,06,12.90
2016,04,25,13,07,13.00
2016,04,25,13,08,13.10
2016,04,25,13,09,13.10
2016,04,25,13,10,13.10
2016,04,25,13,11,13.10
2016,04,25,13,12,13.10
2016,04,25,13,13,13.20
2016,04,25,13,14,13.20
2016,04,25,13,15,13.20
2016,04,25,13,16,13.10
2016,04,25,13,17,13.10
2016,04,25,13,18,13.10
2016,04,25,13,19,13.10
2016,04,25,13,20,13.10
2016,04,25,13,21,13.10
2016,04,25,13,22,13.10
2016,04,25,13,23,13.10
2016,04,25,13,24,13.20
2016,04,25,13,25,13.30
2016,04,25,13,26,13.30
2016,04,25,13,27,13.40
2016,04,25,13,28,13.40
2016,04,25,13,29,13.40
2016,04,25,13,30,13.30
2016,04,25,13,31,13.30
2016,04,25,13,32,13.20
2016,04,25,13,33,13.20
2016,04,25,13,34,13.20
2016,04,25,13,35,13.20
2016,04,25,13,36,13.20
2016,04,25,13,37,13.20
2016,04,25,13,38,13.30
2016,04,25,13,39,13.30
2016,04,25,13,40,13.40
2016,04,25,13,41,13.50
2016,04,25,13,42,13.60
2016,04,25,13,43,13.70
2016,04,25,13,44,13.70
2016,04,25,13,45,13.70
2016,04,25,13,46,13.60
2016,04,25,13,47,13.40
2016,04,25,13,48,13.30
2016,04,25,13,49,13.20
2016,04,25,13,50,13.20
2016,04,25,13,51,13.20
2016,04,25,13,52,13.10
2016,04,25,13,53,13.30
2016,04,25,13,54,13.40
2016,04,25,13,55,13.50
2016,04,25,13,56,13.50
2016,04,25,13,57,13.50
2016,04,25,13,58,13.40
2016,04,25,13,59,13.30
2016,04,25,14,00,13.20
2016,04,25,14,01,13.20
2016,04,25,14,02,13.20
2016,04,25,14,03,13.20
2016,04,25,14,04,13.40
2016,04,25,14,05,13.50
2016,04,25,14,06,13.70
2016,04,25,14,07,13.70
2016,04,25,14,08,13.80
2016,04,25,14,09,13.80
2016,04,25,14,10,13.80
2016,04,25,14,11,13.80
2016,04,25,14,12,13.70
2016,04,25,14,13,13.60
2016,04,25,14,14,13.60
2016,04,25,14,15,13.60
2016,04,25,14,16,13.60
2016,04,25,14,17,13.70
2016,04,25,14,18,13.80
2016,04,25,14,19,13.80
2016,04,25,14,20,13.80
2016,04,25,14,21,13.80
2016,04,25,14,22,13.80
2016,04,25,14,23,13.80
2016,04,25,14,24,13.70
2016,04,25,14,25,13.60
2016,04,25,14,26,13.60
2016,04,25,14,27,13.60
2016,04,25,14,28,13.70
2016,04,25,14,29,13.60
2016,04,25,14,30,13.60
2016,04,25,14,31,13.70
2016,04,25,14,32,13.80
2016,04,25,14,33,13.90
2016,04,25,14,34,14.00
2016,04,25,14,35,14.10
2016,04,25,14,36,14.20
2016,04,25,14,37,14.30
2016,04,25,14,38,14.30
2016,04,25,14,39,14.20
2016,04,25,14,40,14.20
2016,04,25,14,41,14.10
2016,04,25,14,42,14.10
2016,04,25,14,43,14.00
2016,04,25,14,44,14.00
2016,04,25,14,45,14.10
2016,04,25,14,46,14.10
2016,04,25,14,47,14.10
2016,04,25,14,48,14.10
2016,04,25,14,49,14.20
2016,04,25,14,50,14.20
2016,04,25,14,51,14.20
2016,04,25,14,52,14.20
2016,04,25,14,53,14.20
2016,04,25,14,54,14.20
2016,04,25,14,55,14.10
2016,04,25,14,56,13.90
2016,04,25,14,57,13.80
2016,04,25,14,58,13.70
2016,04,25,14,59,13.60
2016,04,25,15,00,13.60
2016,04,25,15,01,13.60
2016,04,25,15,02,13.70
2016,04,25,15,03,13.80
2016,04,25,15,04,13.90
2016,04,25,15,05,14.00
2016,04,25,15,06,14.10
2016,04,25,15,07,14.10
2016,04,25,15,08,14.20
2016,04,25,15,09,14.20
2016,04,25,15,10,14.20
2016,04,25,15,11,14.20
2016,04,25,15,12,14.10
2016,04,25,15,13,14.20
2016,04,25,15,14,14.10
2016,04,25,15,15,14.20
2016,04,25,15,16,14.10
2016,04,25,15,17,14.10
2016,04,25,15,18,14.00
2016,04,25,15,19,13.90
2016,04,25,15,20,13.90
2016,04,25,15,21,13.90
2016,04,25,15,22,14.00
2016,04,25,15,23,14.10
2016,04,25,15,24,14.10
2016,04,25,15,25,14.10
2016,04,25,15,26,14.20
2016,04,25,15,27,14.30
2016,04,25,15,28,14.40
2016,04,25,15,29,14.50
2016,04,25,15,30,14.50
2016,04,25,15,31,14.40
2016,04,25,15,32,14.50
2016,04,25,15,33,14.50
2016,04,25,15,34,14.50
2016,04,25,15,35,14.40
2016,04,25,15,36,14.30
2016,04,25,15,37,14.30
2016,04,25,15,38,14.30
2016,04,25,15,39,14.30
2016,04,25,15,40,14.30
2016,04,25,15,41,14.40
2016,04,25,15,42,14.30
2016,04,25,15,43,14.30
2016,04,25,15,44,14.30
2016,04,25,15,45,14.30
2016,04,25,15,46,14.30
2016,04,25,15,47,14.30
2016,04,25,15,48,14.20
2016,04,25,15,49,14.10
2016,04,25,15,50,14.00
2016,04,25,15,51,13.90
2016,04,25,15,52,13.90
2016,04,25,15,53,13.90
2016,04,25,15,54,14.00
2016,04,25,15,55,14.10
2016,04,25,15,56,14.20
2016,04,25,15,57,14.20
2016,04,25,15,58,14.20
2016,04,25,15,59,14.30
2016,04,25,16,00,14.30
2016,04,25,16,01,14.40
2016,04,25,16,02,14.30
2016,04,25,16,03,14.30
2016,04,25,16,04,14.30
2016,04,25,16,05,14.30
2016,04,25,16,06,14.30
2016,04,25,16,07,14.30
2016,04,25,16,08,14.30
2016,04,25,16,09,14.40
2016,04,25,16,10,14.40
2016,04,25,16,11,14.40
2016,04,25,16,12,14.40
2016,04,25,16,13,14.40
2016,04,25,16,14,14.30
2016,04,25,16,15,14.30
2016,04,25,16,16,14.30
2016,04,25,16,17,14.30
2016,04,25,16,18,14.30
2016,04,25,16,19,14.40
2016,04,25,16,20,14.40
2016,04,25,16,21,14.50
2016,04,25,16,22,14.50
2016,04,25,16,23,14.40
2016,04,25,16,24,14.50
2016,04,25,16,25,14.50
2016,04,25,16,26,14.60
2016,04,25,16,27,14.60
2016,04,25,16,28,14.80
2016,04,25,16,29,14.80
2016,04,25,16,30,14.80
2016,04,25,16,31,14.70
2016,04,25,16,32,14.70
2016,04,25,16,33,14.70
2016,04,25,16,34,14.60
2016,04,25,16,35,14.60
2016,04,25,16,36,14.60
2016,04,25,16,37,14.50
2016,04,25,16,38,14.50
2016,04,25,16,39,14.60
2016,04,25,16,40,14.60
2016,04,25,16,41,14.70
2016,04,25,16,42,14.70
2016,04,25,16,43,14.70
2016,04,25,16,44,14.70
2016,04,25,16,45,14.80
2016,04,25,16,46,14.90
2016,04,25,16,47,15.00
2016,04,25,16,48,15.10
2016,04,25,16,49,15.10
2016,04,25,16,50,15.10
2016,04,25,16,51,15.10
2016,04,25,16,52,15.10
2016,04,25,16,53,15.10
2016,04,25,16,54,15.10
2016,04,25,16,55,15.20
2016,04,25,16,56,15.20
2016,04,25,16,57,15.10
2016,04,25,16,58,15.10
2016,04,25,16,59,15.10
2016,04,25,17,00,15.10
2016,04,25,17,01,15.10
2016,04,25,17,02,15.10
2016,04,25,17,03,15.00
2016,04,25,17,04,15.00
2016,04,25,17,05,15.00
2016,04,25,17,06,14.90
2016,04,25,17,07,14.90
2016,04,25,17,08,14.90
2016,04,25,17,09,14.90
2016,04,25,17,10,14.90
2016,04,25,17,11,15.00
2016,04,25,17,12,15.00
2016,04,25,17,13,15.10
2016,04,25,17,14,15.10
2016,04,25,17,15,15.00
2016,04,25,17,16,15.00
2016,04,25,17,17,14.90
2016,04,25,17,18,14.90
2016,04,25,17,19,14.90
2016,04,25,17,20,14.90
2016,04,25,17,21,14.90
2016,04,25,17,22,14.90
2016,04,25,17,23,14.90
2016,04,25,17,24,14.90
2016,04,25,17,25,15.00
2016,04,25,17,26,15.00
2016,04,25,17,27,15.00
2016,04,25,17,28,15.00
2016,04,25,17,29,15.00
2016,04,25,17,30,15.00
2016,04,25,17,31,15.00
2016,04,25,17,32,15.10
2016,04,25,17,33,15.10
2016,04,25,17,34,15.10
2016,04,25,17,35,15.10
2016,04,25,17,36,15.10
2016,04,25,17,37,15.10
2016,04,25,17,38,15.10
2016,04,25,17,39,15.20
2016,04,25,17,40,15.10
2016,04,25,17,41,15.10
2016,04,25,17,42,15.00
2016,04,25,17,43,14.90
2016,04,25,17,44,14.90
2016,04,25,17,45,14.80
2016,04,25,17,46,14.80
2016,04,25,17,47,14.80
2016,04,25,17,48,14.80
2016,04,25,17,49,14.80
2016,04,25,17,50,14.80
2016,04,25,17,51,14.80
2016,04,25,17,52,14.80
2016,04,25,17,53,14.90
2016,04,25,17,54,14.90
2016,04,25,17,55,15.00
2016,04,25,17,56,15.10
2016,04,25,17,57,15.20
2016,04,25,17,58,15.30
2016,04,25,17,59,15.40
2016,04,25,18,00,15.50
2016,04,25,18,01,15.50
2016,04,25,18,02,15.60
2016,04,25,18,03,15.60
2016,04,25,18,04,15.60
2016,04,25,18,05,15.60
2016,04,25,18,06,15.50
2016,04,25,18,07,15.50
2016,04,25,18,08,15.50
2016,04,25,18,09,15.50
2016,04,25,18,10,15.50
2016,04,25,18,11,15.40
2016,04,25,18,12,15.40
2016,04,25,18,13,15.40
2016,04,25,18,14,15.40
2016,04,25,18,15,15.40
2016,04,25,18,16,15.40
2016,04,25,18,17,15.40
2016,04,25,18,18,15.40
2016,04,25,18,19,15.40
2016,04,25,18,20,15.30
2016,04,25,18,21,15.30
2016,04,25,18,22,15.30
2016,04,25,18,23,15.30
2016,04,25,18,24,15.20
2016,04,25,18,25,15.20
2016,04,25,18,26,15.20
2016,04,25,18,27,15.20
2016,04,25,18,28,15.20
2016,04,25,18,29,15.20
2016,04,25,18,30,15.20
2016,04,25,18,31,15.20
2016,04,25,18,32,15.20
2016,04,25,18,33,15.20
2016,04,25,18,34,15.30
2016,04,25,18,35,15.30
2016,04,25,18,36,15.30
2016,04,25,18,37,15.30
2016,04,25,18,38,15.30
2016,04,25,18,39,15.30
2016,04,25,18,40,15.30
2016,04,25,18,41,15.20
2016,04,25,18,42,15.10
2016,04,25,18,43,15.00
2016,04,25,18,44,15.00
2016,04,25,18,45,14.90
2016,04,25,18,46,14.90
2016,04,25,18,47,15.00
2016,04,25,18,48,15.00
2016,04,25,18,49,15.10
2016,04,25,18,50,15.10
2016,04,25,18,51,15.10
2016,04,25,18,52,15.00
2016,04,25,18,53,15.00
2016,04,25,18,54,15.00
2016,04,25,18,55,15.00
2016,04,25,18,56,15.00
2016,04,25,18,57,15.00
2016,04,25,18,58,15.00
2016,04,25,18,59,15.10
2016,04,25,19,00,15.10
2016,04,25,19,01,15.00
2016,04,25,19,02,15.00
2016,04,25,19,03,14.90
2016,04,25,19,04,14.80
2016,04,25,19,05,14.70
2016,04,25,19,06,14.70
2016,04,25,19,07,14.60
2016,04,25,19,08,14.60
2016,04,25,19,09,14.50
2016,04,25,19,10,14.50
2016,04,25,19,11,14.40
2016,04,25,19,12,14.40
2016,04,25,19,13,14.40
2016,04,25,19,14,14.30
2016,04,25,19,15,14.30
2016,04,25,19,16,14.30
2016,04,25,19,17,14.30
2016,04,25,19,18,14.30
2016,04,25,19,19,14.20
2016,04,25,19,20,14.20
2016,04,25,19,21,14.10
2016,04,25,19,22,14.00
2016,04,25,19,23,14.00
2016,04,25,19,24,13.90
2016,04,25,19,25,13.80
2016,04,25,19,26,13.80
2016,04,25,19,27,13.80
2016,04,25,19,28,13.80
2016,04,25,19,29,13.70
2016,04,25,19,30,13.70
2016,04,25,19,31,13.60
2016,04,25,19,32,13.60
2016,04,25,19,33,13.50
2016,04,25,19,34,13.50
2016,04,25,19,35,13.40
2016,04,25,19,36,13.40
2016,04,25,19,37,13.30
2016,04,25,19,38,13.30
2016,04,25,19,39,13.20
2016,04,25,19,40,13.20
2016,04,25,19,41,13.10
2016,04,25,19,42,13.10
2016,04,25,19,43,13.00
2016,04,25,19,44,12.90
2016,04,25,19,45,12.90
2016,04,25,19,46,12.80
2016,04,25,19,47,12.80
2016,04,25,19,48,12.70
2016,04,25,19,49,12.70
2016,04,25,19,50,12.70
2016,04,25,19,51,12.60
2016,04,25,19,52,12.60
2016,04,25,19,53,12.60
2016,04,25,19,54,12.50
2016,04,25,19,55,12.50
2016,04,25,19,56,12.40
2016,04,25,19,57,12.40
2016,04,25,19,58,12.30
2016,04,25,19,59,12.30
2016,04,25,20,00,12.30
2016,04,25,20,01,12.20
2016,04,25,20,02,12.20
2016,04,25,20,03,12.20
2016,04,25,20,04,12.10
2016,04,25,20,05,12.10
2016,04,25,20,06,12.00
2016,04,25,20,07,12.00
2016,04,25,20,08,11.90
2016,04,25,20,09,11.90
2016,04,25,20,10,11.80
2016,04,25,20,11,11.80
2016,04,25,20,12,11.80
2016,04,25,20,13,11.70
2016,04,25,20,14,11.70
2016,04,25,20,15,11.70
2016,04,25,20,16,11.60
2016,04,25,20,17,11.60
2016,04,25,20,18,11.60
2016,04,25,20,19,11.50
2016,04,25,20,20,11.50
2016,04,25,20,21,11.50
2016,04,25,20,22,11.40
2016,04,25,20,23,11.40
2016,04,25,20,24,11.40
2016,04,25,20,25,11.30
2016,04,25,20,26,11.30
2016,04,25,20,27,11.30
2016,04,25,20,28,11.30
2016,04,25,20,29,11.30
2016,04,25,20,30,11.20
2016,04,25,20,31,11.20
2016,04,25,20,32,11.20
2016,04,25,20,33,11.20
2016,04,25,20,34,11.20
2016,04,25,20,35,11.20
2016,04,25,20,36,11.20
2016,04,25,20,37,11.20
2016,04,25,20,38,11.20
2016,04,25,20,39,11.10
2016,04,25,20,40,11.10
2016,04,25,20,41,11.10
2016,04,25,20,42,11.00
2016,04,25,20,43,11.00
2016,04,25,20,44,10.90
2016,04,25,20,45,10.90
2016,04,25,20,46,10.90
2016,04,25,20,47,10.80
2016,04,25,20,48,10.70
2016,04,25,20,49,10.70
2016,04,25,20,50,10.60
2016,04,25,20,51,10.50
2016,04,25,20,52,10.50
2016,04,25,20,53,10.40
2016,04,25,20,54,10.40
2016,04,25,20,55,10.30
2016,04,25,20,56,10.30
2016,04,25,20,57,10.20
2016,04,25,20,58,10.20
2016,04,25,20,59,10.20
2016,04,25,21,00,10.20
2016,04,25,21,01,10.20
2016,04,25,21,02,10.20
2016,04,25,21,03,10.20
2016,04,25,21,04,10.20
2016,04,25,21,05,10.20
2016,04,25,21,06,10.20
2016,04,25,21,07,10.20
2016,04,25,21,08,10.20
2016,04,25,21,09,10.20
2016,04,25,21,10,10.10
2016,04,25,21,11,10.10
2016,04,25,21,12,10.10
2016,04,25,21,13,10.00
2016,04,25,21,14,10.00
2016,04,25,21,15,10.00
2016,04,25,21,16,9.90
2016,04,25,21,17,9.90
2016,04,25,21,18,9.90
2016,04,25,21,19,9.80
2016,04,25,21,20,9.80
2016,04,25,21,21,9.80
2016,04,25,21,22,9.70
2016,04,25,21,23,9.70
2016,04,25,21,24,9.70
2016,04,25,21,25,9.70
2016,04,25,21,26,9.70
2016,04,25,21,27,9.70
2016,04,25,21,28,9.70
2016,04,25,21,29,9.70
2016,04,25,21,30,9.70
2016,04,25,21,31,9.70
2016,04,25,21,32,9.70
2016,04,25,21,33,9.70
2016,04,25,21,34,9.70
2016,04,25,21,35,9.70
2016,04,25,21,36,9.70
2016,04,25,21,37,9.70
2016,04,25,21,38,9.70
2016,04,25,21,39,9.70
2016,04,25,21,40,9.70
2016,04,25,21,41,9.70
2016,04,25,21,42,9.70
2016,04,25,21,43,9.70
2016,04,25,21,44,9.70
2016,04,25,21,45,9.80
2016,04,25,21,46,9.80
2016,04,25,21,47,9.80
2016,04,25,21,48,9.80
2016,04,25,21,49,9.80
2016,04,25,21,50,9.80
2016,04,25,21,51,9.80
2016,04,25,21,52,9.80
2016,04,25,21,53,9.70
2016,04,25,21,54,9.60
2016,04,25,21,55,9.60
2016,04,25,21,56,9.50
2016,04,25,21,57,9.50
2016,04,25,21,58,9.40
2016,04,25,21,59,9.30
2016,04,25,22,00,9.30
2016,04,25,22,01,9.30
2016,04,25,22,02,9.20
2016,04,25,22,03,9.20
2016,04,25,22,04,9.10
2016,04,25,22,05,9.10
2016,04,25,22,06,9.10
2016,04,25,22,07,9.10
2016,04,25,22,08,9.10
2016,04,25,22,09,9.10
2016,04,25,22,10,9.10
2016,04,25,22,11,9.10
2016,04,25,22,12,9.10
2016,04,25,22,13,9.10
2016,04,25,22,14,9.10
2016,04,25,22,15,9.10
2016,04,25,22,16,9.10
2016,04,25,22,17,9.10
2016,04,25,22,18,9.00
2016,04,25,22,19,9.00
2016,04,25,22,20,9.00
2016,04,25,22,21,8.90
2016,04,25,22,22,8.90
2016,04,25,22,23,8.80
2016,04,25,22,24,8.80
2016,04,25,22,25,8.70
2016,04,25,22,26,8.70
2016,04,25,22,27,8.70
2016,04,25,22,28,8.60
2016,04,25,22,29,8.60
2016,04,25,22,30,8.50
2016,04,25,22,31,8.40
2016,04,25,22,32,8.40
2016,04,25,22,33,8.30
2016,04,25,22,34,8.30
2016,04,25,22,35,8.30
2016,04,25,22,36,8.20
2016,04,25,22,37,8.20
2016,04,25,22,38,8.20
2016,04,25,22,39,8.10
2016,04,25,22,40,8.10
2016,04,25,22,41,8.10
2016,04,25,22,42,8.10
2016,04,25,22,43,8.10
2016,04,25,22,44,8.10
2016,04,25,22,45,8.10
2016,04,25,22,46,8.10
2016,04,25,22,47,8.00
2016,04,25,22,48,8.00
2016,04,25,22,49,7.90
2016,04,25,22,50,7.90
2016,04,25,22,51,7.90
2016,04,25,22,52,7.90
2016,04,25,22,53,7.90
2016,04,25,22,54,7.90
2016,04,25,22,55,7.80
2016,04,25,22,56,7.80
2016,04,25,22,57,7.80
2016,04,25,22,58,7.80
2016,04,25,22,59,7.70
2016,04,25,23,00,7.70
2016,04,25,23,01,7.70
2016,04,25,23,02,7.60
2016,04,25,23,03,7.60
2016,04,25,23,04,7.50
2016,04,25,23,05,7.50
2016,04,25,23,06,7.60
2016,04,25,23,07,7.60
2016,04,25,23,08,7.60
2016,04,25,23,09,7.60
2016,04,25,23,10,7.50
2016,04,25,23,11,7.50
2016,04,25,23,12,7.60
2016,04,25,23,13,7.60
2016,04,25,23,14,7.70
2016,04,25,23,15,7.70
2016,04,25,23,16,7.70
2016,04,25,23,17,7.70
2016,04,25,23,18,7.70
2016,04,25,23,19,7.70
2016,04,25,23,20,7.70
2016,04,25,23,21,7.70
2016,04,25,23,22,7.70
2016,04,25,23,23,7.70
